Cody, WY

3:21 AM MDT on March 30, 2017 (GMT -0600)
Yellowstone Regional

Weather History for KCOD - April, 2013

Change the Weather History Date:

Monday, April 15, 2013

  Actual Average Record
Temperature  
Mean Temperature 22 °F -  
Max Temperature 28 °F 57 °F 82 °F (1962)
Min Temperature 17 °F 32 °F 12 °F (1973)
Degree Days  
Heating Degree Days 42    
Moisture  
Dew Point 16 °F    
Average Humidity 75    
Maximum Humidity 93    
Minimum Humidity 55    
Precipitation  
Precipitation 0.00 in - - ()
Sea Level Pressure  
Sea Level Pressure 29.88 in    
Wind  
Wind Speed 13 mph (North)    
Max Wind Speed 18 mph    
Max Gust Speed 23 mph    
Visibility 10 miles    
Events      
Averages and records for this station are not official NWS values.
T = Trace of Precipitation, MM = Missing Value Source: NWS Daily Summary

Daily Weather History Graph

Daily Weather History Graph

Search for Another Location

Airport or City:

Trip Planner

Search our weather history database for the weather conditions in past years. The results will help you decide how hot, cold, wet, or windy it might be!

Date:

Astronomy

Apr. 15, 2013 Rise Set
Actual Time 6:31 AM MDT 8:01 PM MDT
Civil Twilight 6:01 AM MDT 8:31 PM MDT
Nautical Twilight 5:24 AM MDT 9:08 PM MDT
Astronomical Twilight 4:45 AM MDT 9:48 PM MDT
Moon 9:53 AM MDT (4/15) 12:22 AM MDT (4/15)
Length of Visible Light 14h 30m
Length of Day
13h 29m
Waxing Crescent, 25% of the Moon is Illuminated
Apr 15
Waxing Crescent
Apr 18
First Quarter
Apr 25
Full
May 2
Last Quarter
May 9
New

Hourly Weather History & Observations

Time (MDT) Temp. Windchill Dew Point Humidity Pressure Visibility Wind Dir Wind Speed Gust Speed Precip Events Conditions
12:15 AM 24.8 °F 13.4 °F 19.4 °F 80% 29.80 in 10.0 mi North 12.7 mph - N/A   Overcast
12:35 AM 24.8 °F 13.4 °F 19.4 °F 80% 29.80 in 10.0 mi North 12.7 mph - N/A   Overcast
1:15 AM 23.0 °F 11.7 °F 19.4 °F 86% 29.80 in 10.0 mi North 11.5 mph - N/A   Overcast
1:35 AM 23.0 °F 10.6 °F 19.4 °F 86% 29.80 in 10.0 mi North 13.8 mph - N/A   Overcast
1:55 AM 21.2 °F 8.3 °F 19.4 °F 93% 29.79 in 10.0 mi North 13.8 mph - N/A   Overcast
2:15 AM 21.2 °F 9.5 °F 17.6 °F 86% 29.80 in 10.0 mi NNE 11.5 mph - N/A   Overcast
2:35 AM 21.2 °F 9.5 °F 17.6 °F 86% 29.79 in 10.0 mi North 11.5 mph - N/A   Overcast
3:15 AM 21.2 °F 9.5 °F 17.6 °F 86% 29.79 in 10.0 mi NNE 11.5 mph - N/A   Overcast
3:55 AM 21.2 °F 8.3 °F 17.6 °F 86% 29.79 in 10.0 mi North 13.8 mph - N/A   Overcast
4:15 AM 19.4 °F 6.6 °F 17.6 °F 93% 29.79 in 10.0 mi North 12.7 mph - N/A   Overcast
4:35 AM 19.4 °F 7.2 °F 17.6 °F 93% 29.80 in 10.0 mi North 11.5 mph - N/A   Overcast
4:55 AM 19.4 °F 7.2 °F 15.8 °F 86% 29.81 in 9.0 mi North 11.5 mph - N/A   Overcast
5:15 AM 19.4 °F 7.9 °F 15.8 °F 86% 29.81 in 5.0 mi North 10.4 mph - N/A   Overcast
5:36 AM 19.4 °F 8.6 °F 15.8 °F 86% 29.81 in 4.0 mi North 9.2 mph - N/A   Overcast
5:55 AM 19.4 °F 10.4 °F 15.8 °F 86% 29.81 in 5.0 mi North 6.9 mph - N/A   Overcast
6:15 AM 19.4 °F 7.9 °F 14.0 °F 80% 29.82 in 10.0 mi North 10.4 mph - N/A   Overcast
6:35 AM 19.4 °F 8.6 °F 14.0 °F 80% 29.83 in 10.0 mi North 9.2 mph - N/A   Overcast
6:55 AM 17.6 °F 5.0 °F 14.0 °F 86% 29.83 in 10.0 mi NNE 11.5 mph - N/A   Overcast
7:15 AM 17.6 °F 3.2 °F 12.2 °F 79% 29.84 in 10.0 mi NNE 15.0 mph - N/A   Overcast
7:35 AM 17.6 °F 3.2 °F 14.0 °F 86% 29.84 in 10.0 mi North 15.0 mph 19.6 mph N/A   Overcast
7:55 AM 17.6 °F 2.2 °F 12.2 °F 79% 29.85 in 10.0 mi North 17.3 mph - N/A   Overcast
8:15 AM 17.6 °F 3.7 °F 14.0 °F 86% 29.85 in 10.0 mi North 13.8 mph 21.9 mph N/A   Overcast
8:35 AM 17.6 °F 3.7 °F 14.0 °F 86% 29.85 in 10.0 mi North 13.8 mph - N/A   Overcast
8:55 AM 17.6 °F 2.7 °F 14.0 °F 86% 29.86 in 10.0 mi North 16.1 mph - N/A   Overcast
9:15 AM 19.4 °F 6.6 °F 14.0 °F 80% 29.86 in 10.0 mi North 12.7 mph 20.7 mph N/A   Overcast
9:35 AM 19.4 °F 5.0 °F 14.0 °F 80% 29.86 in 10.0 mi North 16.1 mph 20.7 mph N/A   Overcast
9:55 AM 19.4 °F 5.0 °F 14.0 °F 80% 29.87 in 10.0 mi North 16.1 mph - N/A   Overcast
10:15 AM 19.4 °F 5.5 °F 15.8 °F 86% 29.87 in 10.0 mi North 15.0 mph - N/A   Overcast
10:35 AM 21.2 °F 8.3 °F 15.8 °F 80% 29.87 in 10.0 mi North 13.8 mph - N/A   Overcast
10:55 AM 21.2 °F 8.3 °F 15.8 °F 80% 29.88 in 10.0 mi North 13.8 mph - N/A   Overcast
11:35 AM 21.2 °F 7.8 °F 15.8 °F 80% 29.88 in 10.0 mi NNE 15.0 mph 18.4 mph N/A   Overcast
12:15 PM 23.0 °F 9.6 °F 17.6 °F 80% 29.88 in 10.0 mi North 16.1 mph - N/A   Overcast
12:35 PM 24.8 °F 11.9 °F 17.6 °F 74% 29.88 in 10.0 mi NNE 16.1 mph 23.0 mph N/A   Overcast
12:55 PM 24.8 °F 11.9 °F 17.6 °F 74% 29.88 in 10.0 mi North 16.1 mph - N/A   Overcast
1:15 PM 26.6 °F 15.2 °F 17.6 °F 69% 29.88 in 10.0 mi North 13.8 mph 18.4 mph N/A   Overcast
1:35 PM 26.6 °F 14.3 °F 17.6 °F 69% 29.88 in 10.0 mi NNE 16.1 mph - N/A   Overcast
1:55 PM 26.6 °F 13.4 °F 15.8 °F 64% 29.88 in 10.0 mi NNE 18.4 mph - N/A   Overcast
2:15 PM 26.6 °F 14.7 °F 15.8 °F 64% 29.88 in 10.0 mi North 15.0 mph 19.6 mph N/A   Overcast
2:35 PM 28.4 °F 17.0 °F 17.6 °F 64% 29.88 in 10.0 mi NNE 15.0 mph 21.9 mph N/A   Overcast
2:55 PM 26.6 °F 15.2 °F 15.8 °F 64% 29.88 in 10.0 mi North 13.8 mph - N/A   Overcast
3:15 PM 28.4 °F 16.2 °F 15.8 °F 59% 29.88 in 10.0 mi NNE 17.3 mph 20.7 mph N/A   Overcast
3:35 PM 26.6 °F 14.7 °F 15.8 °F 64% 29.89 in 10.0 mi North 15.0 mph - N/A   Overcast
3:55 PM 26.6 °F 14.7 °F 15.8 °F 64% 29.89 in 10.0 mi NNE 15.0 mph 18.4 mph N/A   Overcast
4:55 PM 26.6 °F 14.7 °F 15.8 °F 64% 29.90 in 10.0 mi North 15.0 mph - N/A   Overcast
5:15 PM 26.6 °F 15.2 °F 12.2 °F 55% 29.90 in 10.0 mi North 13.8 mph - N/A   Overcast
5:35 PM 26.6 °F 15.7 °F 15.8 °F 64% 29.91 in 10.0 mi North 12.7 mph 17.3 mph N/A   Overcast
5:55 PM 26.6 °F 15.2 °F 14.0 °F 59% 29.91 in 10.0 mi North 13.8 mph 18.4 mph N/A   Overcast
6:15 PM 26.6 °F 13.8 °F 14.0 °F 59% 29.92 in 10.0 mi North 17.3 mph 20.7 mph N/A   Overcast
6:35 PM 26.6 °F 14.7 °F 14.0 °F 59% 29.93 in 10.0 mi North 15.0 mph 19.6 mph N/A   Overcast
6:55 PM 26.6 °F 14.3 °F 12.2 °F 55% 29.94 in 10.0 mi North 16.1 mph 21.9 mph N/A   Overcast
7:15 PM 24.8 °F 12.4 °F 12.2 °F 59% 29.94 in 10.0 mi North 15.0 mph - N/A   Overcast
7:35 PM 24.8 °F 12.4 °F 12.2 °F 59% 29.95 in 10.0 mi North 15.0 mph 20.7 mph N/A   Overcast
7:55 PM 24.8 °F 14.0 °F 12.2 °F 59% 29.96 in 10.0 mi North 11.5 mph - N/A   Overcast
8:15 PM 24.8 °F 14.6 °F 14.0 °F 64% 29.97 in 10.0 mi North 10.4 mph - N/A   Overcast
8:35 PM 24.8 °F 15.3 °F 15.8 °F 69% 29.98 in 10.0 mi North 9.2 mph - N/A   Overcast
8:55 PM 24.8 °F 14.0 °F 15.8 °F 69% 29.98 in 10.0 mi North 11.5 mph - N/A   Overcast
9:15 PM 24.8 °F 13.4 °F 15.8 °F 69% 29.99 in 10.0 mi NNW 12.7 mph - N/A   Overcast
9:35 PM 24.8 °F 14.0 °F 15.8 °F 69% 30.00 in 10.0 mi NNW 11.5 mph - N/A   Overcast
9:55 PM 23.0 °F 12.4 °F 15.8 °F 74% 30.01 in 10.0 mi NNW 10.4 mph - N/A   Overcast
10:35 PM 23.0 °F 13.9 °F 15.8 °F 74% 30.01 in 10.0 mi NNW 8.1 mph - N/A   Overcast
10:55 PM 23.0 °F 13.1 °F 15.8 °F 74% 30.01 in 10.0 mi NNW 9.2 mph - N/A   Overcast
11:15 PM 23.0 °F 14.7 °F 15.8 °F 74% 30.00 in 10.0 mi NNW 6.9 mph - N/A   Overcast
11:35 PM 21.2 °F 11.7 °F 15.8 °F 80% 29.97 in 10.0 mi NNW 8.1 mph - N/A   Overcast
11:55 PM 21.2 °F 11.7 °F 15.8 °F 80% 29.92 in 10.0 mi NNW 8.1 mph - N/A   Scattered Clouds